Location: Bremen
(53.0793°N, 8.8017°E)
Time: 21:46:01
(UTC+02:00)

Envisat - Pass Details

Date: 03 March 2024
Orbit: 762 x 764 km, 98.3° (Epoch: 13 April)

Event Time Altitude Azimuth Distance (km) Brightness Sun altitude
Rises 05:03:17 0° 10° (N) 3,244 6.6 -19.2°
Reaches altitude 10° 05:05:45 10° 2° (N) 2,313 5.7 -18.9°
Maximum altitude 05:10:21 36° 297° (WNW) 1,199 3.6 -18.2°
Enters shadow 05:11:30 32° 269° (W) 1,293 3.6 -18.0°
